Location: Newark
(27.3794°N, 52.7375°E)
Time: 08:34:06
(UTC+00:00)

X-37B - Visible Passes

Search period start: 18 September 2020 00:00
Search period end: 28 September 2020 00:00
Orbit: 386 x 387 km, 45.0° (Epoch: 15 September)

Date Brightness Start Highest point End Pass type
(mag) Time Alt. Az. Time Alt. Az. Time Alt. Az.
24 Sep 3.3 00:55:19 10° NNW 00:57:23 16° NNE 00:59:28 10° ENE visible
25 Sep 0.9 01:32:28 10° NW 01:35:37 68° NE 01:38:47 10° ESE visible
26 Sep 2.4 00:37:05 29° NE 00:37:05 29° NE 00:39:50 10° E visible
27 Sep 0.9 01:14:23 38° W 01:15:02 45° SW 01:18:05 10° SSE visible
